Location: Bratislava
(0.0000°N, 17.1167°E)
Time: 05:14:14
(UTC+01:00)

Iridium 4 Rocket - Pass Details

Date: 24 January 2021
Orbit: 583 x 906 km, 86.9° (Epoch: 04 March)

Event Time Altitude Azimuth Distance (km) Brightness Sun altitude
Rises 18:39:30 0° 6° (N) 3,159 6.4 -8.4°
Reaches altitude 10° 18:41:56 10° 9° (N) 2,187 5.6 -9.0°
Maximum altitude 18:46:42 64° 90° (E) 742 3.2 -10.1°
Drops below altitude 10° 18:51:05 10° 172° (S) 2,015 5.8 -11.2°
Sets 18:53:14 0° 175° (S) 2,889 6.7 -11.7°
